Time,TemperatureF,DewpointF,PressureIn,WindDirection,WindDirectionDegrees,WindSpeedMPH,WindSpeedGustMPH,Humidity,HourlyPrecipIn,Conditions,Clouds,dailyrainin,SoftwareType,DateUTC
2013-03-05 00:03:00,64.5,59.9,29.86,NNW,327,3.0,10.0,85,0.00,,---,0.00,VWS V14.01,2013-03-05 06:03:00,
2013-03-05 00:06:00,64.5,59.6,29.86,SW,217,7.0,10.0,84,0.00,,---,0.00,VWS V14.01,2013-03-05 06:06:00,
2013-03-05 00:13:00,64.4,59.8,29.86,SW,218,1.0,7.0,85,0.00,,---,0.00,VWS V14.01,2013-03-05 06:13:00,
2013-03-05 00:18:00,64.3,59.7,29.86,SW,232,0.0,8.0,85,0.00,,---,0.00,VWS V14.01,2013-03-05 06:18:00,
2013-03-05 00:23:00,64.3,59.7,29.86,South,188,0.0,8.0,85,0.00,,---,0.00,VWS V14.01,2013-03-05 06:23:00,
2013-03-05 00:28:00,64.3,59.7,29.85,South,185,1.0,12.0,85,0.00,,---,0.00,VWS V14.01,2013-03-05 06:28:00,
2013-03-05 00:33:00,64.2,59.6,29.86,SW,227,0.0,12.0,85,0.00,,---,0.00,VWS V14.01,2013-03-05 06:33:00,
2013-03-05 00:36:00,64.1,59.5,29.85,SSW,206,5.0,12.0,85,0.00,,---,0.00,VWS V14.01,2013-03-05 06:36:00,
2013-03-05 00:38:00,64.1,59.5,29.85,WNW,288,4.0,5.0,85,0.00,,---,0.00,VWS V14.01,2013-03-05 06:38:00,
2013-03-05 00:43:00,63.8,59.2,29.85,SW,225,4.0,6.0,85,0.00,,---,0.00,VWS V14.01,2013-03-05 06:43:00,
2013-03-05 00:48:00,63.8,59.5,29.86,WSW,250,4.0,7.0,86,0.00,,---,0.00,VWS V14.01,2013-03-05 06:48:00,
2013-03-05 00:53:00,63.8,59.5,29.85,SW,225,4.0,7.0,86,0.00,,---,0.00,VWS V14.01,2013-03-05 06:53:00,
2013-03-05 00:58:00,63.8,59.5,29.86,WSW,250,4.0,7.0,86,0.00,,---,0.00,VWS V14.01,2013-03-05 06:58:00,
2013-03-05 01:03:00,63.8,59.5,29.86,SW,229,3.0,11.0,86,0.00,,---,0.00,VWS V14.01,2013-03-05 07:03:00,
2013-03-05 01:06:00,63.9,59.6,29.86,SSW,199,3.0,11.0,86,0.00,,---,0.00,VWS V14.01,2013-03-05 07:06:00,
2013-03-05 01:08:00,64.0,59.7,29.86,West,269,4.0,4.0,86,0.00,,---,0.00,VWS V14.01,2013-03-05 07:08:00,
2013-03-05 01:13:00,64.0,59.7,29.85,SW,234,4.0,6.0,86,0.00,,---,0.00,VWS V14.01,2013-03-05 07:13:00,
2013-03-05 01:18:00,64.0,59.7,29.85,West,267,3.0,7.0,86,0.00,,---,0.00,VWS V14.01,2013-03-05 07:18:00,
2013-03-05 01:23:00,63.9,59.6,29.85,SE,142,1.0,7.0,86,0.00,,---,0.00,VWS V14.01,2013-03-05 07:23:00,
2013-03-05 01:28:00,63.9,59.6,29.85,WSW,241,2.0,7.0,86,0.00,,---,0.00,VWS V14.01,2013-03-05 07:28:00,
2013-03-05 01:33:00,63.9,59.6,29.85,WSW,252,2.0,7.0,86,0.00,,---,0.00,VWS V14.01,2013-03-05 07:33:00,
2013-03-05 01:36:00,63.9,59.6,29.85,SW,215,0.0,7.0,86,0.00,,---,0.00,VWS V14.01,2013-03-05 07:36:00,
2013-03-05 01:43:00,63.7,59.4,29.85,NW,305,0.0,4.0,86,0.00,,---,0.00,VWS V14.01,2013-03-05 07:43:00,
2013-03-05 01:48:00,63.5,59.6,29.84,WSW,244,3.0,4.0,87,0.00,,---,0.00,VWS V14.01,2013-03-05 07:48:00,
2013-03-05 01:53:00,63.5,59.6,29.84,NE,51,1.0,5.0,87,0.00,,---,0.00,VWS V14.01,2013-03-05 07:53:00,
2013-03-05 01:58:00,63.6,59.7,29.84,SW,215,2.0,6.0,87,0.00,,---,0.00,VWS V14.01,2013-03-05 07:58:00,
2013-03-05 02:03:00,63.6,59.7,29.84,SSW,213,0.0,7.0,87,0.00,,---,0.00,VWS V14.01,2013-03-05 08:03:00,
2013-03-05 02:08:00,63.7,59.8,29.84,SW,228,8.0,9.0,87,0.00,,---,0.00,VWS V14.01,2013-03-05 08:08:00,
2013-03-05 02:13:00,63.7,59.8,29.84,SW,220,2.0,9.0,87,0.00,,---,0.00,VWS V14.01,2013-03-05 08:13:00,
2013-03-05 02:18:00,63.7,59.8,29.85,NW,312,4.0,9.0,87,0.00,,---,0.00,VWS V14.01,2013-03-05 08:18:00,
2013-03-05 02:23:00,63.8,59.9,29.85,SSW,198,1.0,9.0,87,0.00,,---,0.00,VWS V14.01,2013-03-05 08:23:00,
2013-03-05 02:28:00,63.8,59.9,29.84,SSW,207,3.0,9.0,87,0.00,,---,0.00,VWS V14.01,2013-03-05 08:28:00,
2013-03-05 02:33:00,63.7,59.8,29.84,SSW,206,1.0,10.0,87,0.00,,---,0.00,VWS V14.01,2013-03-05 08:33:00,
2013-03-05 02:38:00,63.7,59.8,29.84,SW,220,7.0,7.0,87,0.00,,---,0.00,VWS V14.01,2013-03-05 08:38:00,
2013-03-05 02:43:00,63.8,59.9,29.83,SW,221,0.0,9.0,87,0.00,,---,0.00,VWS V14.01,2013-03-05 08:43:00,
2013-03-05 02:48:00,63.7,59.8,29.84,SW,216,3.0,9.0,87,0.00,,---,0.00,VWS V14.01,2013-03-05 08:48:00,
2013-03-05 02:53:00,63.8,59.9,29.84,WSW,245,3.0,11.0,87,0.00,,---,0.00,VWS V14.01,2013-03-05 08:53:00,
2013-03-05 02:58:00,63.8,59.9,29.83,SW,214,0.0,11.0,87,0.00,,---,0.00,VWS V14.01,2013-03-05 08:58:00,
2013-03-05 03:03:00,63.7,59.8,29.83,West,263,3.0,11.0,87,0.00,,---,0.00,VWS V14.01,2013-03-05 09:03:00,
2013-03-05 03:06:00,63.7,59.8,29.83,SSE,159,2.0,11.0,87,0.00,,---,0.00,VWS V14.01,2013-03-05 09:06:00,
2013-03-05 03:08:00,63.8,59.9,29.84,SW,224,1.0,7.0,87,0.00,,---,0.00,VWS V14.01,2013-03-05 09:08:00,
2013-03-05 03:13:00,63.8,59.9,29.84,WSW,255,3.0,10.0,87,0.00,,---,0.00,VWS V14.01,2013-03-05 09:13:00,
2013-03-05 03:18:00,63.7,59.8,29.83,SSW,196,2.0,10.0,87,0.00,,---,0.00,VWS V14.01,2013-03-05 09:18:00,
2013-03-05 03:23:00,63.7,60.1,29.83,WSW,251,2.0,10.0,88,0.00,,---,0.00,VWS V14.01,2013-03-05 09:23:00,
2013-03-05 03:28:00,63.8,60.2,29.83,South,186,2.0,10.0,88,0.00,,---,0.00,VWS V14.01,2013-03-05 09:28:00,
2013-03-05 03:33:00,63.7,60.1,29.83,South,175,2.0,10.0,88,0.00,,---,0.00,VWS V14.01,2013-03-05 09:33:00,
2013-03-05 03:38:00,63.6,60.0,29.82,ESE,118,0.0,8.0,88,0.00,,---,0.00,VWS V14.01,2013-03-05 09:38:00,
2013-03-05 03:43:00,63.4,59.8,29.83,West,265,3.0,8.0,88,0.00,,---,0.00,VWS V14.01,2013-03-05 09:43:00,
2013-03-05 03:48:00,63.4,59.8,29.83,South,169,1.0,8.0,88,0.00,,---,0.00,VWS V14.01,2013-03-05 09:48:00,
2013-03-05 03:53:00,63.4,59.8,29.83,SSW,198,2.0,8.0,88,0.00,,---,0.00,VWS V14.01,2013-03-05 09:53:00,
2013-03-05 03:58:00,63.5,59.9,29.84,SSW,200,2.0,9.0,88,0.00,,---,0.00,VWS V14.01,2013-03-05 09:58:00,
2013-03-05 04:04:00,63.6,60.0,29.84,West,281,4.0,9.0,88,0.00,,---,0.00,VWS V14.01,2013-03-05 10:04:00,
2013-03-05 04:06:00,63.6,60.0,29.84,SW,228,1.0,9.0,88,0.00,,---,0.00,VWS V14.01,2013-03-05 10:06:00,
2013-03-05 04:09:00,63.7,60.1,29.84,SW,216,1.0,4.0,88,0.00,,---,0.00,VWS V14.01,2013-03-05 10:09:00,
2013-03-05 04:14:00,63.7,60.1,29.84,SSW,204,4.0,8.0,88,0.00,,---,0.00,VWS V14.01,2013-03-05 10:14:00,
2013-03-05 04:19:00,63.7,60.1,29.84,WNW,292,2.0,8.0,88,0.00,,---,0.00,VWS V14.01,2013-03-05 10:19:00,
2013-03-05 04:24:00,63.7,60.4,29.84,SW,234,4.0,8.0,89,0.00,,---,0.00,VWS V14.01,2013-03-05 10:24:00,
2013-03-05 04:29:00,63.9,60.3,29.85,WSW,242,3.0,8.0,88,0.00,,---,0.00,VWS V14.01,2013-03-05 10:29:00,
2013-03-05 04:34:00,64.1,60.5,29.86,WSW,252,7.0,13.0,88,0.00,,---,0.00,VWS V14.01,2013-03-05 10:34:00,
2013-03-05 04:39:00,64.2,60.6,29.91,WNW,300,10.0,11.0,88,0.00,,---,0.00,VWS V14.01,2013-03-05 10:39:00,
2013-03-05 04:44:00,64.3,60.7,29.93,WSW,245,4.0,17.0,88,0.00,,---,0.00,VWS V14.01,2013-03-05 10:44:00,
2013-03-05 04:49:00,64.2,60.6,29.92,West,281,6.0,17.0,88,0.00,,---,0.00,VWS V14.01,2013-03-05 10:49:00,
2013-03-05 04:54:00,64.2,60.6,29.94,WNW,303,6.0,17.0,88,0.00,,---,0.00,VWS V14.01,2013-03-05 10:54:00,
2013-03-05 04:59:00,64.1,60.5,29.93,West,269,7.0,17.0,88,0.00,,---,0.00,VWS V14.01,2013-03-05 10:59:00,
2013-03-05 05:04:00,64.1,60.5,29.93,West,269,3.0,17.0,88,0.00,,---,0.00,VWS V14.01,2013-03-05 11:04:00,
2013-03-05 05:09:00,64.1,60.5,29.94,WNW,283,4.0,8.0,88,0.00,,---,0.00,VWS V14.01,2013-03-05 11:09:00,
2013-03-05 05:14:00,64.0,60.7,29.93,WNW,288,5.0,8.0,89,0.00,,---,0.00,VWS V14.01,2013-03-05 11:14:00,
2013-03-05 05:19:00,63.9,60.6,29.93,WNW,294,2.0,11.0,89,0.00,,---,0.00,VWS V14.01,2013-03-05 11:19:00,
2013-03-05 05:24:00,63.8,60.5,29.93,West,261,4.0,11.0,89,0.00,,---,0.00,VWS V14.01,2013-03-05 11:24:00,
2013-03-05 05:29:00,63.6,60.6,29.94,West,271,3.0,11.0,90,0.00,,---,0.00,VWS V14.01,2013-03-05 11:29:00,
2013-03-05 05:34:00,63.5,60.5,29.94,SW,217,4.0,11.0,90,0.00,,---,0.00,VWS V14.01,2013-03-05 11:34:00,
2013-03-05 05:36:00,63.5,60.5,29.94,SW,230,1.0,11.0,90,0.00,,---,0.00,VWS V14.01,2013-03-05 11:36:00,
2013-03-05 05:39:00,63.4,60.4,29.93,WSW,244,4.0,4.0,90,0.00,,---,0.00,VWS V14.01,2013-03-05 11:39:00,
2013-03-05 05:44:00,63.4,60.4,29.94,SSW,198,2.0,5.0,90,0.00,,---,0.00,VWS V14.01,2013-03-05 11:44:00,
2013-03-05 05:49:00,63.3,60.3,29.93,WSW,250,4.0,5.0,90,0.00,,---,0.00,VWS V14.01,2013-03-05 11:49:00,
2013-03-05 05:54:00,63.3,60.6,29.94,West,259,3.0,6.0,91,0.00,,---,0.00,VWS V14.01,2013-03-05 11:54:00,
2013-03-05 05:59:00,63.3,60.3,29.94,SW,225,3.0,6.0,90,0.00,,---,0.00,VWS V14.01,2013-03-05 11:59:00,
2013-03-05 06:04:00,63.1,60.4,29.94,West,261,2.0,6.0,91,0.00,,---,0.00,VWS V14.01,2013-03-05 12:04:00,
2013-03-05 06:06:00,63.1,60.4,29.94,WSW,248,1.0,6.0,91,0.00,,---,0.00,VWS V14.01,2013-03-05 12:06:00,
2013-03-05 06:09:00,63.0,60.3,29.94,WSW,248,1.0,2.0,91,0.00,,---,0.00,VWS V14.01,2013-03-05 12:09:00,
2013-03-05 06:14:00,62.9,60.2,29.94,WSW,248,0.0,3.0,91,0.00,,---,0.00,VWS V14.01,2013-03-05 12:14:00,
2013-03-05 06:19:00,62.8,60.1,29.94,WSW,241,3.0,4.0,91,0.00,,---,0.00,VWS V14.01,2013-03-05 12:19:00,
2013-03-05 06:24:00,62.7,60.0,29.94,WSW,257,0.0,4.0,91,0.00,,---,0.00,VWS V14.01,2013-03-05 12:24:00,
2013-03-05 06:29:00,62.7,60.3,29.95,WNW,282,0.0,4.0,92,0.00,,---,0.00,VWS V14.01,2013-03-05 12:29:00,
2013-03-05 06:34:00,62.8,60.5,29.95,SW,236,0.0,4.0,92,0.00,,---,0.00,VWS V14.01,2013-03-05 12:34:00,
2013-03-05 06:39:00,62.7,60.0,29.94,SW,234,1.0,2.0,91,0.00,,---,0.00,VWS V14.01,2013-03-05 12:39:00,
2013-03-05 06:44:00,62.5,60.2,29.94,SW,231,1.0,3.0,92,0.00,,---,0.00,VWS V14.01,2013-03-05 12:44:00,
2013-03-05 06:49:00,62.3,60.0,29.94,SW,235,1.0,3.0,92,0.00,,---,0.00,VWS V14.01,2013-03-05 12:49:00,
2013-03-05 06:54:00,62.5,60.5,29.94,SSW,207,1.0,3.0,93,0.00,,---,0.00,VWS V14.01,2013-03-05 12:54:00,
2013-03-05 06:59:00,62.7,60.3,29.94,SW,221,0.0,5.0,92,0.00,,---,0.00,VWS V14.01,2013-03-05 12:59:00,
2013-03-05 07:04:00,62.7,60.3,29.94,SW,232,3.0,5.0,92,0.00,,---,0.00,VWS V14.01,2013-03-05 13:04:00,
2013-03-05 07:09:00,62.8,60.5,29.94,WSW,248,0.0,2.0,92,0.00,,---,0.00,VWS V14.01,2013-03-05 13:09:00,
2013-03-05 07:14:00,62.8,60.5,29.94,West,269,1.0,4.0,92,0.00,,---,0.00,VWS V14.01,2013-03-05 13:14:00,
2013-03-05 07:19:00,62.9,60.5,29.95,SSW,209,2.0,4.0,92,0.00,,---,0.00,VWS V14.01,2013-03-05 13:19:00,
2013-03-05 07:24:00,63.0,60.6,29.95,WSW,251,1.0,5.0,92,0.00,,---,0.00,VWS V14.01,2013-03-05 13:24:00,
2013-03-05 07:29:00,63.0,60.6,29.95,SSW,207,2.0,5.0,92,0.00,,---,0.00,VWS V14.01,2013-03-05 13:29:00,
2013-03-05 07:34:00,63.1,60.7,29.95,SW,231,1.0,6.0,92,0.00,,---,0.00,VWS V14.01,2013-03-05 13:34:00,
2013-03-05 07:39:00,63.3,60.9,29.95,WSW,253,2.0,3.0,92,0.00,,---,0.00,VWS V14.01,2013-03-05 13:39:00,
2013-03-05 07:44:00,63.4,61.0,29.95,SW,225,2.0,5.0,92,0.00,,---,0.00,VWS V14.01,2013-03-05 13:44:00,
2013-03-05 07:49:00,63.5,61.1,29.95,SW,234,2.0,9.0,92,0.00,,---,0.00,VWS V14.01,2013-03-05 13:49:00,
2013-03-05 07:54:00,63.8,61.4,29.95,WNW,293,3.0,9.0,92,0.00,,---,0.00,VWS V14.01,2013-03-05 13:54:00,
2013-03-05 07:59:00,64.0,61.3,29.96,WSW,258,3.0,9.0,91,0.00,,---,0.00,VWS V14.01,2013-03-05 13:59:00,
2013-03-05 08:04:00,64.4,61.7,29.96,WNW,298,4.0,9.0,91,0.00,,---,0.00,VWS V14.01,2013-03-05 14:04:00,
2013-03-05 08:06:00,64.5,61.5,29.96,SW,234,5.0,9.0,90,0.00,,---,0.00,VWS V14.01,2013-03-05 14:06:00,
2013-03-05 08:09:00,64.7,61.7,29.96,West,276,4.0,8.0,90,0.00,,---,0.00,VWS V14.01,2013-03-05 14:09:00,
2013-03-05 08:14:00,64.9,61.6,29.97,West,259,3.0,8.0,89,0.00,,---,0.00,VWS V14.01,2013-03-05 14:14:00,
2013-03-05 08:19:00,65.1,61.8,29.97,West,279,4.0,8.0,89,0.00,,---,0.00,VWS V14.01,2013-03-05 14:19:00,
2013-03-05 08:24:00,65.3,62.0,29.97,West,273,4.0,9.0,89,0.00,,---,0.00,VWS V14.01,2013-03-05 14:24:00,
2013-03-05 08:29:00,65.5,61.9,29.97,WSW,246,4.0,10.0,88,0.00,,---,0.00,VWS V14.01,2013-03-05 14:29:00,
2013-03-05 08:34:00,65.7,62.0,29.97,West,274,6.0,11.0,88,0.00,,---,0.00,VWS V14.01,2013-03-05 14:34:00,
2013-03-05 08:39:00,65.8,61.8,29.97,WNW,300,6.0,12.0,87,0.00,,---,0.00,VWS V14.01,2013-03-05 14:39:00,
2013-03-05 08:44:00,66.0,61.7,29.98,WNW,303,13.0,14.0,86,0.00,,---,0.00,VWS V14.01,2013-03-05 14:44:00,
2013-03-05 08:49:00,65.3,56.0,30.01,North,360,15.0,39.0,72,0.00,,---,0.00,VWS V14.01,2013-03-05 14:49:00,
2013-03-05 08:54:00,62.7,50.8,30.01,West,278,14.0,39.0,65,0.00,,---,0.00,VWS V14.01,2013-03-05 14:54:00,
2013-03-05 08:59:00,60.7,49.7,30.02,NW,318,10.0,39.0,67,0.00,,---,0.00,VWS V14.01,2013-03-05 14:59:00,
2013-03-05 09:04:00,59.6,49.0,30.03,WNW,284,9.0,39.0,68,0.00,,---,0.00,VWS V14.01,2013-03-05 15:04:00,
2013-03-05 09:09:00,59.1,48.6,30.03,WNW,288,4.0,13.0,68,0.00,,---,0.00,VWS V14.01,2013-03-05 15:09:00,
2013-03-05 09:15:00,59.3,48.8,30.04,WNW,288,3.0,13.0,68,0.00,,---,0.00,VWS V14.01,2013-03-05 15:15:00,
2013-03-05 09:20:00,60.1,49.5,30.04,North,355,1.0,13.0,68,0.00,,---,0.00,VWS V14.01,2013-03-05 15:20:00,
2013-03-05 09:25:00,59.9,48.9,30.05,NNW,341,3.0,13.0,67,0.00,,---,0.00,VWS V14.01,2013-03-05 15:25:00,
2013-03-05 09:30:00,59.4,48.0,30.05,West,280,12.0,13.0,66,0.00,,---,0.00,VWS V14.01,2013-03-05 15:30:00,
2013-03-05 09:35:00,59.0,47.7,30.06,WNW,295,9.0,24.0,66,0.00,,---,0.00,VWS V14.01,2013-03-05 15:35:00,
2013-03-05 09:36:00,59.0,47.7,30.06,WNW,302,3.0,24.0,66,0.00,,---,0.00,VWS V14.01,2013-03-05 15:36:00,
2013-03-05 09:40:00,58.9,47.2,30.06,West,281,6.0,13.0,65,0.00,,---,0.00,VWS V14.01,2013-03-05 15:40:00,
2013-03-05 09:45:00,58.8,47.1,30.06,NW,326,4.0,17.0,65,0.00,,---,0.00,VWS V14.01,2013-03-05 15:45:00,
2013-03-05 09:50:00,59.1,47.4,30.06,NNW,346,4.0,17.0,65,0.00,,---,0.00,VWS V14.01,2013-03-05 15:50:00,
2013-03-05 09:55:00,59.1,46.5,30.06,WNW,291,4.0,17.0,63,0.00,,---,0.00,VWS V14.01,2013-03-05 15:55:00,
2013-03-05 10:00:00,59.9,46.4,30.07,WNW,288,6.0,17.0,61,0.00,,---,0.00,VWS V14.01,2013-03-05 16:00:00,
2013-03-05 10:05:00,61.2,47.2,30.07,NE,45,5.0,17.0,60,0.00,,---,0.00,VWS V14.01,2013-03-05 16:05:00,
2013-03-05 10:10:00,61.8,46.9,30.07,WNW,300,3.0,13.0,58,0.00,,---,0.00,VWS V14.01,2013-03-05 16:10:00,
2013-03-05 10:15:00,62.3,46.9,30.07,WSW,246,8.0,13.0,57,0.00,,---,0.00,VWS V14.01,2013-03-05 16:15:00,
2013-03-05 10:20:00,62.6,48.5,30.07,NW,325,3.0,14.0,60,0.00,,---,0.00,VWS V14.01,2013-03-05 16:20:00,
2013-03-05 10:25:00,63.4,46.5,30.07,North,5,3.0,16.0,54,0.00,,---,0.00,VWS V14.01,2013-03-05 16:25:00,
2013-03-05 10:30:00,63.7,46.8,30.07,East,86,5.0,16.0,54,0.00,,---,0.00,VWS V14.01,2013-03-05 16:30:00,
2013-03-05 10:35:00,64.0,47.0,30.07,NE,41,3.0,16.0,54,0.00,,---,0.00,VWS V14.01,2013-03-05 16:35:00,
2013-03-05 10:36:00,63.9,47.4,30.07,NNW,333,3.0,16.0,55,0.00,,---,0.00,VWS V14.01,2013-03-05 16:36:00,
2013-03-05 10:45:00,64.8,48.8,30.08,NW,309,5.0,13.0,56,0.00,,---,0.00,VWS V14.01,2013-03-05 16:45:00,
2013-03-05 10:50:00,65.2,48.6,30.08,NE,55,4.0,13.0,55,0.00,,---,0.00,VWS V14.01,2013-03-05 16:50:00,
2013-03-05 10:55:00,65.6,47.5,30.09,NW,304,4.0,13.0,52,0.00,,---,0.00,VWS V14.01,2013-03-05 16:55:00,
2013-03-05 11:00:00,65.1,48.1,30.08,WSW,238,1.0,15.0,54,0.00,,---,0.00,VWS V14.01,2013-03-05 17:00:00,
2013-03-05 11:05:00,64.9,46.4,30.08,North,360,8.0,15.0,51,0.00,,---,0.00,VWS V14.01,2013-03-05 17:05:00,
2013-03-05 11:06:00,65.0,46.5,30.08,West,279,9.0,15.0,51,0.00,,---,0.00,VWS V14.01,2013-03-05 17:06:00,
2013-03-05 11:10:00,64.6,45.6,30.08,NW,326,2.0,15.0,50,0.00,,---,0.00,VWS V14.01,2013-03-05 17:10:00,
2013-03-05 11:15:00,65.5,47.9,30.09,NNW,346,2.0,15.0,53,0.00,,---,0.00,VWS V14.01,2013-03-05 17:15:00,
2013-03-05 11:20:00,66.4,47.7,30.09,NNE,26,5.0,15.0,51,0.00,,---,0.00,VWS V14.01,2013-03-05 17:20:00,
2013-03-05 11:25:00,66.6,47.9,30.09,West,265,3.0,15.0,51,0.00,,---,0.00,VWS V14.01,2013-03-05 17:25:00,
2013-03-05 11:30:00,66.3,47.1,30.09,WNW,289,8.0,15.0,50,0.00,,---,0.00,VWS V14.01,2013-03-05 17:30:00,
2013-03-05 11:35:00,66.4,47.2,30.09,WSW,256,6.0,15.0,50,0.00,,---,0.00,VWS V14.01,2013-03-05 17:35:00,
2013-03-05 11:36:00,66.4,45.6,30.09,NW,305,10.0,15.0,47,0.00,,---,0.00,VWS V14.01,2013-03-05 17:36:00,
2013-03-05 11:40:00,66.5,46.8,30.09,WNW,292,10.0,12.0,49,0.00,,---,0.00,VWS V14.01,2013-03-05 17:40:00,
2013-03-05 11:45:00,66.6,46.9,30.09,West,280,6.0,12.0,49,0.00,,---,0.00,VWS V14.01,2013-03-05 17:45:00,
2013-03-05 11:50:00,67.2,46.9,30.09,NW,309,1.0,12.0,48,0.00,,---,0.00,VWS V14.01,2013-03-05 17:50:00,
2013-03-05 11:55:00,67.4,45.3,30.09,North,351,8.0,12.0,45,0.00,,---,0.00,VWS V14.01,2013-03-05 17:55:00,
2013-03-05 12:00:00,67.3,46.4,30.09,NNW,336,2.0,12.0,47,0.00,,---,0.00,VWS V14.01,2013-03-05 18:00:00,
2013-03-05 12:05:00,67.8,46.3,30.09,East,90,3.0,12.0,46,0.00,,---,0.00,VWS V14.01,2013-03-05 18:05:00,
2013-03-05 12:06:00,67.8,46.3,30.09,NNW,333,4.0,12.0,46,0.00,,---,0.00,VWS V14.01,2013-03-05 18:06:00,
2013-03-05 12:10:00,67.9,47.0,30.09,North,5,4.0,7.0,47,0.00,,---,0.00,VWS V14.01,2013-03-05 18:10:00,
2013-03-05 12:15:00,67.7,46.2,30.09,WNW,292,9.0,13.0,46,0.00,,---,0.00,VWS V14.01,2013-03-05 18:15:00,
2013-03-05 12:20:00,67.2,44.6,30.09,WNW,292,10.0,16.0,44,0.00,,---,0.00,VWS V14.01,2013-03-05 18:20:00,
2013-03-05 12:25:00,67.5,44.8,30.09,WNW,286,6.0,16.0,44,0.00,,---,0.00,VWS V14.01,2013-03-05 18:25:00,
2013-03-05 12:30:00,67.9,44.6,30.09,West,279,6.0,16.0,43,0.00,,---,0.00,VWS V14.01,2013-03-05 18:30:00,
2013-03-05 12:35:00,67.2,44.0,30.09,West,274,9.0,17.0,43,0.00,,---,0.00,VWS V14.01,2013-03-05 18:35:00,
2013-03-05 12:40:00,67.8,45.1,30.09,NW,312,3.0,8.0,44,0.00,,---,0.00,VWS V14.01,2013-03-05 18:40:00,
2013-03-05 12:45:00,67.7,45.0,30.08,SE,140,5.0,10.0,44,0.00,,---,0.00,VWS V14.01,2013-03-05 18:45:00,
2013-03-05 12:50:00,67.9,44.0,30.08,ENE,67,3.0,10.0,42,0.00,,---,0.00,VWS V14.01,2013-03-05 18:50:00,
2013-03-05 12:55:00,68.0,44.7,30.09,NNW,339,2.0,10.0,43,0.00,,---,0.00,VWS V14.01,2013-03-05 18:55:00,
2013-03-05 13:00:00,69.1,45.1,30.09,WNW,294,9.0,11.0,42,0.00,,---,0.00,VWS V14.01,2013-03-05 19:00:00,
2013-03-05 13:05:00,68.8,44.8,30.08,WNW,291,5.0,11.0,42,0.00,,---,0.00,VWS V14.01,2013-03-05 19:05:00,
2013-03-05 13:06:00,68.8,43.5,30.08,West,273,4.0,11.0,40,0.00,,---,0.00,VWS V14.01,2013-03-05 19:06:00,
2013-03-05 13:10:00,69.9,47.0,30.08,North,5,0.0,8.0,44,0.00,,---,0.00,VWS V14.01,2013-03-05 19:10:00,
2013-03-05 13:15:00,70.0,44.6,30.09,North,360,4.0,13.0,40,0.00,,---,0.00,VWS V14.01,2013-03-05 19:15:00,
2013-03-05 13:20:00,69.0,41.0,30.08,NNE,20,5.0,14.0,36,0.00,,---,0.00,VWS V14.01,2013-03-05 19:20:00,
2013-03-05 13:25:00,69.4,46.0,30.08,NNE,15,3.0,14.0,43,0.00,,---,0.00,VWS V14.01,2013-03-05 19:25:00,
2013-03-05 13:30:00,69.8,42.4,30.08,NNW,336,1.0,14.0,37,0.00,,---,0.00,VWS V14.01,2013-03-05 19:30:00,
2013-03-05 13:35:00,69.7,45.6,30.08,West,278,2.0,14.0,42,0.00,,---,0.00,VWS V14.01,2013-03-05 19:35:00,
2013-03-05 13:40:00,69.7,42.3,30.08,North,355,2.0,13.0,37,0.00,,---,0.00,VWS V14.01,2013-03-05 19:40:00,
2013-03-05 13:45:00,69.7,41.6,30.08,West,281,9.0,13.0,36,0.00,,---,0.00,VWS V14.01,2013-03-05 19:45:00,
2013-03-05 13:50:00,69.1,40.3,30.08,NNW,340,3.0,16.0,35,0.00,,---,0.00,VWS V14.01,2013-03-05 19:50:00,
2013-03-05 13:55:00,68.9,43.6,30.08,ENE,75,3.0,16.0,40,0.00,,---,0.00,VWS V14.01,2013-03-05 19:55:00,
2013-03-05 14:00:00,68.9,43.0,30.08,WNW,289,7.0,16.0,39,0.00,,---,0.00,VWS V14.01,2013-03-05 20:00:00,
2013-03-05 14:05:00,68.7,44.1,30.08,NW,313,1.0,17.0,41,0.00,,---,0.00,VWS V14.01,2013-03-05 20:05:00,
2013-03-05 14:10:00,69.0,41.7,30.08,WNW,291,3.0,10.0,37,0.00,,---,0.00,VWS V14.01,2013-03-05 20:10:00,
2013-03-05 14:15:00,69.5,42.1,30.08,North,355,4.0,10.0,37,0.00,,---,0.00,VWS V14.01,2013-03-05 20:15:00,
2013-03-05 14:20:00,69.0,41.0,30.08,North,355,2.0,14.0,36,0.00,,---,0.00,VWS V14.01,2013-03-05 20:20:00,
2013-03-05 14:25:00,68.6,39.1,30.08,West,263,8.0,14.0,34,0.00,,---,0.00,VWS V14.01,2013-03-05 20:25:00,
2013-03-05 14:30:00,69.1,40.3,30.08,NNW,343,3.0,14.0,35,0.00,,---,0.00,VWS V14.01,2013-03-05 20:30:00,
2013-03-05 14:35:00,69.4,40.6,30.09,NNW,342,3.0,14.0,35,0.00,,---,0.00,VWS V14.01,2013-03-05 20:35:00,
2013-03-05 14:40:00,68.8,39.3,30.08,West,274,5.0,18.0,34,0.00,,---,0.00,VWS V14.01,2013-03-05 20:40:00,
2013-03-05 14:46:00,69.0,37.1,30.08,West,269,6.0,18.0,31,0.00,,---,0.00,VWS V14.01,2013-03-05 20:46:00,
2013-03-05 14:51:00,69.0,38.7,30.09,NW,324,2.0,18.0,33,0.00,,---,0.00,VWS V14.01,2013-03-05 20:51:00,
2013-03-05 14:56:00,69.2,38.1,30.09,WNW,290,2.0,18.0,32,0.00,,---,0.00,VWS V14.01,2013-03-05 20:56:00,
2013-03-05 15:01:00,69.2,38.1,30.09,West,279,5.0,18.0,32,0.00,,---,0.00,VWS V14.01,2013-03-05 21:01:00,
2013-03-05 15:06:00,69.4,39.1,30.09,WNW,296,6.0,18.0,33,0.00,,---,0.00,VWS V14.01,2013-03-05 21:06:00,
2013-03-05 15:11:00,69.5,38.4,30.09,WNW,288,5.0,9.0,32,0.00,,---,0.00,VWS V14.01,2013-03-05 21:11:00,
2013-03-05 15:16:00,69.1,37.2,30.09,West,279,7.0,13.0,31,0.00,,---,0.00,VWS V14.01,2013-03-05 21:16:00,
2013-03-05 15:21:00,68.9,38.6,30.09,NW,323,3.0,13.0,33,0.00,,---,0.00,VWS V14.01,2013-03-05 21:21:00,
2013-03-05 15:26:00,69.3,38.2,30.09,West,266,4.0,13.0,32,0.00,,---,0.00,VWS V14.01,2013-03-05 21:26:00,
2013-03-05 15:31:00,68.4,35.8,30.09,WNW,294,7.0,13.0,30,0.00,,---,0.00,VWS V14.01,2013-03-05 21:31:00,
2013-03-05 15:36:00,67.9,37.0,30.09,WNW,294,5.0,13.0,32,0.00,,---,0.00,VWS V14.01,2013-03-05 21:36:00,
2013-03-05 15:41:00,68.7,40.0,30.09,NW,313,10.0,12.0,35,0.00,,---,0.00,VWS V14.01,2013-03-05 21:41:00,
2013-03-05 15:46:00,68.7,36.9,30.10,WNW,283,5.0,12.0,31,0.00,,---,0.00,VWS V14.01,2013-03-05 21:46:00,
2013-03-05 15:51:00,68.3,35.7,30.10,WNW,296,8.0,21.0,30,0.00,,---,0.00,VWS V14.01,2013-03-05 21:51:00,
2013-03-05 15:56:00,67.8,37.7,30.10,West,263,4.0,21.0,33,0.00,,---,0.00,VWS V14.01,2013-03-05 21:56:00,
2013-03-05 16:01:00,67.6,36.7,30.10,West,280,10.0,21.0,32,0.00,,---,0.00,VWS V14.01,2013-03-05 22:01:00,
2013-03-05 16:06:00,67.7,36.0,30.10,NW,311,2.0,21.0,31,0.00,,---,0.00,VWS V14.01,2013-03-05 22:06:00,
2013-03-05 16:11:00,67.8,36.9,30.10,NE,50,3.0,9.0,32,0.00,,---,0.00,VWS V14.01,2013-03-05 22:11:00,
2013-03-05 16:16:00,67.7,39.1,30.10,North,360,3.0,9.0,35,0.00,,---,0.00,VWS V14.01,2013-03-05 22:16:00,
2013-03-05 16:21:00,67.9,37.0,30.11,North,355,1.0,11.0,32,0.00,,---,0.00,VWS V14.01,2013-03-05 22:21:00,
2013-03-05 16:26:00,67.7,36.8,30.11,NW,304,1.0,11.0,32,0.00,,---,0.00,VWS V14.01,2013-03-05 22:26:00,
2013-03-05 16:31:00,67.3,34.8,30.11,North,360,3.0,11.0,30,0.00,,---,0.00,VWS V14.01,2013-03-05 22:31:00,
2013-03-05 16:36:00,66.7,32.6,30.11,North,5,4.0,11.0,28,0.00,,---,0.00,VWS V14.01,2013-03-05 22:36:00,
2013-03-05 16:41:00,66.3,34.8,30.12,West,280,5.0,12.0,31,0.00,,---,0.00,VWS V14.01,2013-03-05 22:41:00,
2013-03-05 16:46:00,66.0,32.9,30.12,NW,322,2.0,12.0,29,0.00,,---,0.00,VWS V14.01,2013-03-05 22:46:00,
2013-03-05 16:51:00,65.8,33.5,30.12,North,9,5.0,12.0,30,0.00,,---,0.00,VWS V14.01,2013-03-05 22:51:00,
2013-03-05 16:56:00,65.4,31.5,30.12,West,279,9.0,12.0,28,0.00,,---,0.00,VWS V14.01,2013-03-05 22:56:00,
2013-03-05 17:01:00,64.9,32.8,30.12,NNW,346,1.0,12.0,30,0.00,,---,0.00,VWS V14.01,2013-03-05 23:01:00,
2013-03-05 17:06:00,64.5,32.4,30.12,North,355,3.0,12.0,30,0.00,,---,0.00,VWS V14.01,2013-03-05 23:06:00,
2013-03-05 17:11:00,64.4,33.1,30.13,NW,314,7.0,12.0,31,0.00,,---,0.00,VWS V14.01,2013-03-05 23:11:00,
2013-03-05 17:16:00,64.1,35.2,30.13,NNW,336,0.0,12.0,34,0.00,,---,0.00,VWS V14.01,2013-03-05 23:16:00,
2013-03-05 17:21:00,63.8,32.6,30.13,NNE,15,2.0,12.0,31,0.00,,---,0.00,VWS V14.01,2013-03-05 23:21:00,
2013-03-05 17:26:00,63.4,32.3,30.13,North,355,4.0,12.0,31,0.00,,---,0.00,VWS V14.01,2013-03-05 23:26:00,
2013-03-05 17:31:00,63.0,32.7,30.13,NE,41,2.0,12.0,32,0.00,,---,0.00,VWS V14.01,2013-03-05 23:31:00,
2013-03-05 17:36:00,62.7,34.7,30.13,WNW,302,6.0,6.0,35,0.00,,---,0.00,VWS V14.01,2013-03-05 23:36:00,
2013-03-05 17:41:00,62.2,35.6,30.14,WNW,299,4.0,9.0,37,0.00,,---,0.00,VWS V14.01,2013-03-05 23:41:00,
2013-03-05 17:46:00,61.6,35.1,30.14,WNW,288,6.0,9.0,37,0.00,,---,0.00,VWS V14.01,2013-03-05 23:46:00,
2013-03-05 17:51:00,61.2,35.4,30.14,WNW,295,0.0,10.0,38,0.00,,---,0.00,VWS V14.01,2013-03-05 23:51:00,
2013-03-05 17:56:00,60.4,35.3,30.14,NW,313,1.0,10.0,39,0.00,,---,0.00,VWS V14.01,2013-03-05 23:56:00,
2013-03-05 18:01:00,59.8,36.1,30.14,NW,326,0.0,10.0,41,0.00,,---,0.00,VWS V14.01,2013-03-06 00:01:00,
2013-03-05 18:06:00,59.4,34.5,30.15,NW,311,5.0,5.0,39,0.00,,---,0.00,VWS V14.01,2013-03-06 00:06:00,
2013-03-05 18:11:00,59.2,34.3,30.15,NW,319,3.0,8.0,39,0.00,,---,0.00,VWS V14.01,2013-03-06 00:11:00,
2013-03-05 18:16:00,58.8,34.5,30.15,WNW,289,6.0,8.0,40,0.00,,---,0.00,VWS V14.01,2013-03-06 00:16:00,
2013-03-05 18:21:00,58.2,34.6,30.15,West,280,5.0,8.0,41,0.00,,---,0.00,VWS V14.01,2013-03-06 00:21:00,
2013-03-05 18:26:00,57.8,34.9,30.16,NW,304,0.0,8.0,42,0.00,,---,0.00,VWS V14.01,2013-03-06 00:26:00,
2013-03-05 18:31:00,57.0,34.2,30.16,NW,315,2.0,8.0,42,0.00,,---,0.00,VWS V14.01,2013-03-06 00:31:00,
2013-03-05 18:36:00,56.7,34.5,30.16,NW,313,0.0,8.0,43,0.00,,---,0.00,VWS V14.01,2013-03-06 00:36:00,
2013-03-05 18:41:00,56.6,34.4,30.16,WNW,299,5.0,5.0,43,0.00,,---,0.00,VWS V14.01,2013-03-06 00:41:00,
2013-03-05 18:46:00,56.6,34.4,30.16,NNW,338,1.0,6.0,43,0.00,,---,0.00,VWS V14.01,2013-03-06 00:46:00,
2013-03-05 18:51:00,56.5,34.3,30.17,WNW,294,0.0,7.0,43,0.00,,---,0.00,VWS V14.01,2013-03-06 00:51:00,
2013-03-05 18:56:00,56.2,34.0,30.17,NW,304,2.0,7.0,43,0.00,,---,0.00,VWS V14.01,2013-03-06 00:56:00,
2013-03-05 19:01:00,55.8,34.2,30.17,WNW,296,0.0,7.0,44,0.00,,---,0.00,VWS V14.01,2013-03-06 01:01:00,
2013-03-05 19:06:00,55.8,34.8,30.18,WNW,289,2.0,3.0,45,0.00,,---,0.00,VWS V14.01,2013-03-06 01:06:00,
2013-03-05 19:11:00,55.2,34.2,30.18,WNW,297,2.0,5.0,45,0.00,,---,0.00,VWS V14.01,2013-03-06 01:11:00,
2013-03-05 19:16:00,55.0,33.5,30.18,NNW,338,2.0,7.0,44,0.00,,---,0.00,VWS V14.01,2013-03-06 01:16:00,
2013-03-05 19:22:00,54.9,34.0,30.18,West,277,0.0,7.0,45,0.00,,---,0.00,VWS V14.01,2013-03-06 01:22:00,
2013-03-05 19:27:00,54.4,34.6,30.18,NW,316,0.0,7.0,47,0.00,,---,0.00,VWS V14.01,2013-03-06 01:27:00,
2013-03-05 19:32:00,54.1,34.9,30.19,NNW,328,0.0,7.0,48,0.00,,---,0.00,VWS V14.01,2013-03-06 01:32:00,
2013-03-05 19:37:00,54.1,34.3,30.19,WNW,300,0.0,0.0,47,0.00,,---,0.00,VWS V14.01,2013-03-06 01:37:00,
2013-03-05 19:42:00,53.7,34.5,30.19,WNW,300,0.0,1.0,48,0.00,,---,0.00,VWS V14.01,2013-03-06 01:42:00,
2013-03-05 19:47:00,53.5,34.3,30.19,WNW,282,1.0,3.0,48,0.00,,---,0.00,VWS V14.01,2013-03-06 01:47:00,
2013-03-05 19:52:00,53.9,34.2,30.19,West,278,1.0,6.0,47,0.00,,---,0.00,VWS V14.01,2013-03-06 01:52:00,
2013-03-05 19:57:00,53.8,33.5,30.20,West,276,5.0,7.0,46,0.00,,---,0.00,VWS V14.01,2013-03-06 01:57:00,
2013-03-05 20:02:00,53.8,34.6,30.20,WNW,288,0.0,8.0,48,0.00,,---,0.00,VWS V14.01,2013-03-06 02:02:00,
2013-03-05 20:06:00,53.6,34.4,30.20,North,355,0.0,9.0,48,0.00,,---,0.00,VWS V14.01,2013-03-06 02:06:00,
2013-03-05 20:07:00,53.6,33.3,30.20,NNW,344,0.0,3.0,46,0.00,,---,0.00,VWS V14.01,2013-03-06 02:07:00,
2013-03-05 20:12:00,53.6,33.9,30.20,NNW,343,2.0,5.0,47,0.00,,---,0.00,VWS V14.01,2013-03-06 02:12:00,
2013-03-05 20:17:00,53.4,33.2,30.20,WNW,284,2.0,5.0,46,0.00,,---,0.00,VWS V14.01,2013-03-06 02:17:00,
2013-03-05 20:22:00,53.3,33.6,30.21,NW,304,0.0,5.0,47,0.00,,---,0.00,VWS V14.01,2013-03-06 02:22:00,
2013-03-05 20:27:00,52.8,33.7,30.21,NW,304,0.0,5.0,48,0.00,,---,0.00,VWS V14.01,2013-03-06 02:27:00,
2013-03-05 20:32:00,52.4,33.3,30.21,NNE,12,0.0,5.0,48,0.00,,---,0.00,VWS V14.01,2013-03-06 02:32:00,
2013-03-05 20:36:00,52.4,32.8,30.21,North,360,2.0,5.0,47,0.00,,---,0.00,VWS V14.01,2013-03-06 02:36:00,
2013-03-05 20:42:00,52.0,32.4,30.22,NNW,332,3.0,5.0,47,0.00,,---,0.00,VWS V14.01,2013-03-06 02:42:00,
2013-03-05 20:47:00,52.1,33.0,30.22,North,355,0.0,5.0,48,0.00,,---,0.00,VWS V14.01,2013-03-06 02:47:00,
2013-03-05 20:52:00,52.2,32.1,30.22,NNW,346,1.0,6.0,46,0.00,,---,0.00,VWS V14.01,2013-03-06 02:52:00,
2013-03-05 20:57:00,51.8,32.2,30.23,NW,325,1.0,6.0,47,0.00,,---,0.00,VWS V14.01,2013-03-06 02:57:00,
2013-03-05 21:02:00,51.9,31.2,30.23,NNW,335,2.0,6.0,45,0.00,,---,0.00,VWS V14.01,2013-03-06 03:02:00,
2013-03-05 21:06:00,51.7,31.1,30.23,NW,322,1.0,6.0,45,0.00,,---,0.00,VWS V14.01,2013-03-06 03:06:00,
2013-03-05 21:12:00,51.4,30.2,30.23,NW,312,1.0,8.0,44,0.00,,---,0.00,VWS V14.01,2013-03-06 03:12:00,
2013-03-05 21:17:00,51.4,30.2,30.23,NNW,329,1.0,8.0,44,0.00,,---,0.00,VWS V14.01,2013-03-06 03:17:00,
2013-03-05 21:22:00,51.1,30.5,30.24,NE,37,1.0,8.0,45,0.00,,---,0.00,VWS V14.01,2013-03-06 03:22:00,
2013-03-05 21:27:00,50.8,29.7,30.24,NE,46,1.0,8.0,44,0.00,,---,0.00,VWS V14.01,2013-03-06 03:27:00,
2013-03-05 21:32:00,50.5,30.0,30.24,NNW,348,0.0,8.0,45,0.00,,---,0.00,VWS V14.01,2013-03-06 03:32:00,
2013-03-05 21:37:00,50.2,30.8,30.25,North,5,0.0,2.0,47,0.00,,---,0.00,VWS V14.01,2013-03-06 03:37:00,
2013-03-05 21:42:00,49.9,30.0,30.25,NNW,344,0.0,5.0,46,0.00,,---,0.00,VWS V14.01,2013-03-06 03:42:00,
2013-03-05 21:47:00,50.0,29.5,30.25,NW,326,4.0,8.0,45,0.00,,---,0.00,VWS V14.01,2013-03-06 03:47:00,
2013-03-05 21:52:00,49.8,29.3,30.25,NW,308,2.0,8.0,45,0.00,,---,0.00,VWS V14.01,2013-03-06 03:52:00,
2013-03-05 21:57:00,49.9,28.9,30.25,NNW,328,1.0,8.0,44,0.00,,---,0.00,VWS V14.01,2013-03-06 03:57:00,
2013-03-05 22:02:00,49.6,28.6,30.26,NNW,329,1.0,8.0,44,0.00,,---,0.00,VWS V14.01,2013-03-06 04:02:00,
2013-03-05 22:06:00,49.5,29.1,30.26,NNE,19,0.0,8.0,45,0.00,,---,0.00,VWS V14.01,2013-03-06 04:06:00,
2013-03-05 22:07:00,49.4,27.9,30.26,NNE,17,2.0,2.0,43,0.00,,---,0.00,VWS V14.01,2013-03-06 04:07:00,
2013-03-05 22:12:00,49.2,28.2,30.26,NNW,344,1.0,7.0,44,0.00,,---,0.00,VWS V14.01,2013-03-06 04:12:00,
2013-03-05 22:17:00,49.0,28.6,30.26,North,355,2.0,7.0,45,0.00,,---,0.00,VWS V14.01,2013-03-06 04:17:00,
2013-03-05 22:22:00,48.7,28.3,30.27,ESE,119,1.0,7.0,45,0.00,,---,0.00,VWS V14.01,2013-03-06 04:22:00,
2013-03-05 22:27:00,48.6,28.2,30.27,NNE,26,1.0,7.0,45,0.00,,---,0.00,VWS V14.01,2013-03-06 04:27:00,
2013-03-05 22:32:00,48.5,28.1,30.27,North,351,2.0,7.0,45,0.00,,---,0.00,VWS V14.01,2013-03-06 04:32:00,
2013-03-05 22:36:00,48.3,27.4,30.27,North,360,1.0,11.0,44,0.00,,---,0.00,VWS V14.01,2013-03-06 04:36:00,
2013-03-05 22:37:00,48.4,27.5,30.27,North,360,1.0,3.0,44,0.00,,---,0.00,VWS V14.01,2013-03-06 04:37:00,
2013-03-05 22:42:00,48.2,27.3,30.27,ENE,68,2.0,7.0,44,0.00,,---,0.00,VWS V14.01,2013-03-06 04:42:00,
2013-03-05 22:47:00,48.1,27.8,30.27,North,355,1.0,7.0,45,0.00,,---,0.00,VWS V14.01,2013-03-06 04:47:00,
2013-03-05 22:52:00,47.7,27.4,30.27,NNE,20,1.0,7.0,45,0.00,,---,0.00,VWS V14.01,2013-03-06 04:52:00,
2013-03-05 22:57:00,47.7,27.4,30.27,NNE,13,3.0,7.0,45,0.00,,---,0.00,VWS V14.01,2013-03-06 04:57:00,
2013-03-05 23:02:00,47.6,27.3,30.27,NNE,14,2.0,7.0,45,0.00,,---,0.00,VWS V14.01,2013-03-06 05:02:00,
2013-03-05 23:06:00,47.3,27.0,30.27,NNW,342,1.0,7.0,45,0.00,,---,0.00,VWS V14.01,2013-03-06 05:06:00,
2013-03-05 23:07:00,47.2,27.5,30.27,NNW,346,1.0,4.0,46,0.00,,---,0.00,VWS V14.01,2013-03-06 05:07:00,
2013-03-05 23:12:00,46.9,27.7,30.27,ENE,57,0.0,5.0,47,0.00,,---,0.00,VWS V14.01,2013-03-06 05:12:00,
2013-03-05 23:17:00,46.5,27.4,30.27,NNE,32,0.0,5.0,47,0.00,,---,0.00,VWS V14.01,2013-03-06 05:17:00,
2013-03-05 23:22:00,46.3,27.7,30.28,NNE,28,0.0,5.0,48,0.00,,---,0.00,VWS V14.01,2013-03-06 05:22:00,
2013-03-05 23:27:00,46.0,27.4,30.28,NNE,21,1.0,5.0,48,0.00,,---,0.00,VWS V14.01,2013-03-06 05:27:00,
2013-03-05 23:32:00,45.7,27.6,30.28,NNE,15,1.0,5.0,49,0.00,,---,0.00,VWS V14.01,2013-03-06 05:32:00,
2013-03-05 23:38:00,45.5,27.5,30.28,North,355,2.0,2.0,49,0.00,,---,0.00,VWS V14.01,2013-03-06 05:38:00,
2013-03-05 23:43:00,45.0,27.5,30.28,North,355,0.0,3.0,50,0.00,,---,0.00,VWS V14.01,2013-03-06 05:43:00,
2013-03-05 23:48:00,44.9,27.9,30.28,NNE,30,1.0,3.0,51,0.00,,---,0.00,VWS V14.01,2013-03-06 05:48:00,
2013-03-05 23:53:00,44.8,27.8,30.28,NNE,27,2.0,4.0,51,0.00,,---,0.00,VWS V14.01,2013-03-06 05:53:00,
2013-03-05 23:58:00,45.0,26.5,30.28,NNW,346,1.0,5.0,48,0.00,,---,0.00,VWS V14.01,2013-03-06 05:58:00,